Pagina principale
METAR-TAF:

METAR-TAF

Aeroporti :

Tarvisio, Italia

latitudine: 46-30N, longitudine: 013-35E, altezza: 777 m

Osservazione

Il bollettino è stato emesso 11 ore e 40 minuti fa, alle 13:55 UTC
Vento calmo
Temperature 19°C
Umidità 52%
Pressione 1009 hPa
Visibilità 10 km o più
Nuvoloso ad un'altezza di 3000 ft

METAR: LIVO 151355Z 00000KT 9999 BKN030 19/09 Q1009 RMK BKN VIS MIN 9999

Ora: 03:35 (01:35 UTC)


TAF: mancante

Osservazioni e previsioni meteorologiche di più di 4000 aeroporti (messaggi METAR e TAF).

Le stazioni disponibili sono rappresentate dai dischi gialli e rossi sulla carta.

Puntare il mouse per vedere il nome della stazione.

Clicca sopra per visualizzare le osservazioni e previsioni meteorologiche.

Per cambiare la mappa : fare clic sui pulsanti verdi con una croce nera per ingrandire, il pulsante verde con un trattino per diminuire, o sulla freccia verde per le mappe adiacenti.


METAR-TAF: